Location: Unspecified
(0.0000°N, 0.0000°E)
Time: 11:31:02
(UTC+00:00)

Courier 1B - Pass Details

Date: 26 November 2019
Orbit: 963 x 1209 km, 28.3° (Epoch: 07 December)

Event Time Altitude Azimuth Distance (km) Brightness Sun altitude
Rises 09:24:51 0° 316° (NW) 3,708 10.2 49.4°
Reaches altitude 10° 09:27:50 10° 325° (NW) 2,731 9.6 50.1°
Maximum altitude 09:33:41 34° 28° (NNE) 1,532 8.9 51.3°
Drops below altitude 10° 09:39:27 10° 92° (E) 2,685 10.5 52.4°
Sets 09:42:20 0° 101° (E) 3,637 11.0 53.0°
